sat.trackr.live / text

‹ back to catalog

LANDSAT 9

NORAD 49260 · 2021-088A

PAYLOAD ACTIVE UNKNOWN

§ Identity

Operator
Country
US
Launch date
2021-09-27
Launch site
AFWTR
Launch vehicle
Mass (kg)
RCS (m²)

Purposes: earth_obs

External: N2YO · Heavens-Above · Gunter

§ Orbital elements

Epoch: 2026-05-25T04:36:45.837216Z

Period
98.83 min
Inclination
98.1858°
Eccentricity
0.0001446
Mean motion
14.57115672 rev/d
Perigee alt
701.5 km
Apogee alt
703.5 km
Semi-major
7,080.6 km
B*
6.9333e-5
RAAN
215.6996°
Arg perigee
97.9305°
Mean anomaly
262.2058°
Rev number
24,765

§ Raw data

LANDSAT 91 49260U 21088A   26145.19219719  .00000267  00000+0  69333-4 0  99992 49260  98.1858 215.6996 0001446  97.9305 262.2058 14.57115672247656

JSON: /api/v1/satellites/49260 · /tle

For live sub-satellite position, see the globe view (requires WebGL).

§ Visibility from observer

Set your observer location to see the next 7 days of passes ≥ 10°. The values pass through the URL so the page stays shareable.

No JS? Fill the form by hand. The geolocation button needs JavaScript.

§ Radio — SatNOGS DB

ModeDescriptionDownlinkUplink
FM S-band telemetry 2.282 GHz

1 transmitter · refreshed weekly from db.satnogs.org